| time (UTC) | temp F | wind direction | speed MPH | gust MPH | rain 1hr in | rain 24hr in | rain mn in | humidity % | barometer mb |
| 20260903214005 | 60 | 17 | 8.0 | 16.0 | 0.01 | 0.50 | 0.48 | 81 | 1009.3 |
| 20260903213505 | 61 | 147 | 6.0 | 14.0 | 0.01 | 0.50 | 0.48 | 83 | 1009.3 |
| 20260903213005 | 60 | 120 | 9.0 | 14.0 | 0.01 | 0.51 | 0.48 | 83 | 1009.5 |
| 20260903212005 | 60 | 157 | 7.0 | 15.0 | 0.01 | 0.51 | 0.48 | 85 | 1009.6 |
| 20260903211506 | 60 | 0 | 10.0 | 16.0 | 0.01 | 0.51 | 0.48 | 85 | 1009.6 |
| 20260903211006 | 60 | 158 | 8.0 | 16.0 | 0.01 | 0.51 | 0.48 | 86 | 1009.6 |
| 20260903210505 | 59 | 155 | 9.0 | 18.0 | 0.02 | 0.51 | 0.48 | 86 | 1009.5 |
| 20260903210006 | 58 | 176 | 7.0 | 13.0 | 0.02 | 0.52 | 0.48 | 87 | 1009.5 |
| 20260903205505 | 58 | 190 | 9.0 | 14.0 | 0.02 | 0.52 | 0.48 | 87 | 1009.5 |
| 20260903205005 | 58 | 4 | 7.0 | 16.0 | 0.03 | 0.52 | 0.48 | 87 | 1009.6 |
| 20260903204505 | 59 | 181 | 9.0 | 16.0 | 0.02 | 0.51 | 0.47 | 88 | 1009.6 |
| 20260903204006 | 59 | 169 | 9.0 | 18.0 | 0.10 | 0.51 | 0.47 | 88 | 1009.4 |
| 20260903203505 | 59 | 178 | 6.0 | 9.0 | 0.12 | 0.51 | 0.47 | 89 | 1009.5 |
| 20260903203005 | 58 | 146 | 6.0 | 12.0 | 0.13 | 0.52 | 0.47 | 89 | 1009.5 |
| 20260903202504 | 58 | 201 | 4.0 | 10.0 | 0.14 | 0.52 | 0.47 | 89 | 1009.5 |
| 20260903202006 | 58 | 178 | 7.0 | 13.0 | 0.14 | 0.52 | 0.47 | 89 | 1009.5 |
| 20260903201505 | 58 | 175 | 6.0 | 15.0 | 0.14 | 0.52 | 0.47 | 89 | 1009.6 |
| 20260903201005 | 58 | 185 | 8.0 | 14.0 | 0.14 | 0.53 | 0.47 | 89 | 1009.5 |
| 20260903200006 | 58 | 167 | 4.0 | 12.0 | 0.14 | 0.52 | 0.46 | 89 | 1009.4 |
| 20260903195505 | 58 | 165 | 7.0 | 14.0 | 0.14 | 0.53 | 0.46 | 88 | 1009.4 |
| 20260903195005 | 58 | 174 | 9.0 | 17.0 | 0.13 | 0.52 | 0.45 | 87 | 1009.4 |
| 20260903194505 | 58 | 336 | 9.0 | 15.0 | 0.13 | 0.52 | 0.45 | 87 | 1009.4 |
| 20260903194005 | 58 | 0 | 9.0 | 15.0 | 0.05 | 0.44 | 0.37 | 87 | 1009.4 |
| 20260903193505 | 59 | 148 | 5.0 | 10.0 | 0.04 | 0.42 | 0.35 | 87 | 1009.3 |
| 20260903192005 | 59 | 177 | 3.0 | 7.0 | 0.03 | 0.41 | 0.33 | 88 | 1009.5 |
| 20260903191505 | 58 | 188 | 4.0 | 8.0 | 0.03 | 0.41 | 0.33 | 88 | 1009.6 |
| 20260903191005 | 58 | 152 | 6.0 | 10.0 | 0.03 | 0.41 | 0.33 | 88 | 1009.6 |
| 20260903190505 | 57 | 196 | 6.0 | 9.0 | 0.02 | 0.40 | 0.32 | 88 | 1009.6 |
| 20260903185505 | 57 | 261 | 1.0 | 2.0 | 0.02 | 0.43 | 0.32 | 88 | 1009.7 |
| 20260903185005 | 57 | 254 | 1.0 | 3.0 | 0.02 | 0.45 | 0.32 | 88 | 1009.7 |
| 20260903184505 | 57 | 294 | 2.0 | 6.0 | 0.02 | 0.45 | 0.32 | 87 | 1009.8 |
| 20260903183006 | 58 | 0 | 5.0 | 9.0 | 0.01 | 0.46 | 0.31 | 85 | 1009.9 |
| 20260903182505 | 59 | 359 | 5.0 | 13.0 | 0.00 | 0.45 | 0.30 | 85 | 1009.9 |
| 20260903182005 | 60 | 203 | 7.0 | 13.0 | 0.00 | 0.45 | 0.30 | 84 | 1009.6 |
| 20260903181505 | 59 | 192 | 5.0 | 13.0 | 0.00 | 0.45 | 0.30 | 84 | 1009.5 |
| 20260903181004 | 59 | 158 | 10.0 | 14.0 | 0.00 | 0.45 | 0.30 | 84 | 1009.3 |
| 20260903180504 | 59 | 166 | 6.0 | 14.0 | 0.00 | 0.45 | 0.30 | 84 | 1009.3 |
| 20260903175505 | 60 | 163 | 11.0 | 17.0 | 0.01 | 0.46 | 0.30 | 84 | 1009.3 |
| 20260903175005 | 60 | 110 | 10.0 | 16.0 | 0.01 | 0.47 | 0.30 | 84 | 1009.3 |
| 20260903174505 | 60 | 118 | 3.0 | 9.0 | 0.01 | 0.47 | 0.30 | 85 | 1009.3 |
| 20260903174005 | 59 | 135 | 9.0 | 13.0 | 0.01 | 0.47 | 0.30 | 84 | 1009.3 |
| 20260903173505 | 60 | 3 | 5.0 | 10.0 | 0.01 | 0.48 | 0.30 | 86 | 1009.4 |
| 20260903173005 | 60 | 347 | 5.0 | 13.0 | 0.01 | 0.48 | 0.30 | 86 | 1009.4 |
| 20260903172504 | 59 | 169 | 6.0 | 10.0 | 0.01 | 0.48 | 0.30 | 87 | 1009.4 |
| 20260903171505 | 58 | 171 | 7.0 | 15.0 | 0.01 | 0.50 | 0.30 | 88 | 1009.5 |
| 20260903171005 | 58 | 164 | 5.0 | 13.0 | 0.01 | 0.50 | 0.30 | 88 | 1009.5 |
| 20260903170505 | 58 | 170 | 6.0 | 9.0 | 0.01 | 0.52 | 0.30 | 88 | 1009.6 |
| 20260903170005 | 58 | 185 | 6.0 | 10.0 | 0.01 | 0.53 | 0.30 | 89 | 1009.5 |
| 20260903165505 | 57 | 188 | 6.0 | 12.0 | 0.00 | 0.52 | 0.29 | 89 | 1009.5 |
| 20260903165005 | 57 | 175 | 5.0 | 15.0 | 0.00 | 0.53 | 0.29 | 89 | 1009.4 |
| 20260903164004 | 57 | 222 | 5.0 | 13.0 | 0.00 | 0.55 | 0.29 | 90 | 1009.6 |
| 20260903162505 | 56 | 189 | 7.0 | 12.0 | 0.00 | 0.56 | 0.29 | 90 | 1009.7 |
| 20260903162005 | 56 | 194 | 6.0 | 10.0 | 0.01 | 0.56 | 0.29 | 90 | 1009.8 |
| 20260903161505 | 56 | 194 | 6.0 | 10.0 | 0.01 | 0.56 | 0.29 | 90 | 1009.7 |
| 20260903161005 | 55 | 180 | 6.0 | 12.0 | 0.02 | 0.56 | 0.29 | 90 | 1009.8 |
| 20260903160505 | 55 | 194 | 6.0 | 15.0 | 0.03 | 0.56 | 0.29 | 90 | 1009.7 |
| 20260903160005 | 55 | 205 | 5.0 | 9.0 | 0.04 | 0.56 | 0.29 | 90 | 1009.6 |
| 20260903155504 | 55 | 190 | 6.0 | 12.0 | 0.05 | 0.56 | 0.29 | 90 | 1009.7 |
| 20260903154505 | 55 | 163 | 4.0 | 13.0 | 0.06 | 0.56 | 0.29 | 90 | 1009.6 |
| 20260903154005 | 55 | 176 | 4.0 | 10.0 | 0.06 | 0.56 | 0.29 | 90 | 1009.6 |
| 20260903153505 | 55 | 172 | 6.0 | 10.0 | 0.06 | 0.56 | 0.29 | 90 | 1009.6 |
| 20260903153005 | 55 | 184 | 5.0 | 9.0 | 0.07 | 0.56 | 0.29 | 90 | 1009.6 |
| 20260903152505 | 55 | 182 | 6.0 | 12.0 | 0.07 | 0.56 | 0.29 | 90 | 1009.6 |
| 20260903152005 | 55 | 170 | 6.0 | 10.0 | 0.07 | 0.55 | 0.28 | 90 | 1009.5 |
| 20260903150505 | 55 | 173 | 5.0 | 12.0 | 0.06 | 0.53 | 0.26 | 90 | 1009.5 |
| 20260903150005 | 55 | 156 | 5.0 | 12.0 | 0.05 | 0.52 | 0.25 | 90 | 1009.5 |
| 20260903145505 | 55 | 176 | 6.0 | 9.0 | 0.04 | 0.51 | 0.24 | 90 | 1009.3 |
| 20260903145005 | 55 | 166 | 5.0 | 9.0 | 0.04 | 0.51 | 0.24 | 90 | 1009.3 |
| 20260903144505 | 55 | 150 | 3.0 | 8.0 | 0.04 | 0.50 | 0.23 | 90 | 1009.3 |
| 20260903143505 | 55 | 160 | 5.0 | 8.0 | 0.05 | 0.50 | 0.23 | 90 | 1009.2 |
| 20260903143005 | 55 | 178 | 6.0 | 10.0 | 0.04 | 0.49 | 0.22 | 90 | 1009.1 |
| 20260903142505 | 55 | 189 | 5.0 | 8.0 | 0.05 | 0.49 | 0.22 | 90 | 1009.1 |
| 20260903142005 | 55 | 191 | 8.0 | 13.0 | 0.07 | 0.48 | 0.21 | 90 | 1009.1 |
| 20260903141505 | 55 | 175 | 8.0 | 16.0 | 0.09 | 0.48 | 0.21 | 90 | 1009.1 |
| 20260903141005 | 55 | 181 | 3.0 | 7.0 | 0.09 | 0.48 | 0.21 | 90 | 1009.1 |
| 20260903140505 | 55 | 189 | 3.0 | 7.0 | 0.08 | 0.47 | 0.20 | 90 | 1009.0 |
| 20260903140005 | 55 | 174 | 4.0 | 8.0 | 0.08 | 0.47 | 0.20 | 90 | 1009.0 |
| 20260903135505 | 55 | 185 | 4.0 | 10.0 | 0.08 | 0.47 | 0.20 | 90 | 1009.0 |
| 20260903134505 | 55 | 171 | 5.0 | 10.0 | 0.07 | 0.46 | 0.19 | 90 | 1009.0 |
| 20260903134005 | 55 | 152 | 3.0 | 10.0 | 0.06 | 0.45 | 0.18 | 90 | 1009.0 |
| 20260903133504 | 55 | 172 | 5.0 | 8.0 | 0.08 | 0.45 | 0.18 | 90 | 1008.8 |
| 20260903133005 | 55 | 168 | 5.0 | 7.0 | 0.11 | 0.45 | 0.18 | 90 | 1008.9 |
| 20260903132505 | 55 | 155 | 2.0 | 7.0 | 0.11 | 0.44 | 0.17 | 90 | 1008.9 |
| 20260903132006 | 55 | 177 | 3.0 | 9.0 | 0.08 | 0.41 | 0.14 | 90 | 1009.0 |
| 20260903131505 | 55 | 177 | 5.0 | 9.0 | 0.07 | 0.39 | 0.12 | 90 | 1008.9 |
| 20260903131005 | 55 | 188 | 6.0 | 10.0 | 0.07 | 0.39 | 0.12 | 90 | 1008.8 |
| 20260903130005 | 55 | 163 | 6.0 | 12.0 | 0.09 | 0.39 | 0.12 | 90 | 1008.7 |
| 20260903125504 | 55 | 165 | 3.0 | 7.0 | 0.09 | 0.39 | 0.12 | 90 | 1008.7 |
| 20260903125005 | 55 | 165 | 2.0 | 5.0 | 0.10 | 0.39 | 0.12 | 90 | 1008.7 |
| 20260903124505 | 55 | 137 | 3.0 | 5.0 | 0.10 | 0.39 | 0.12 | 90 | 1008.7 |
| 20260903124004 | 55 | 170 | 5.0 | 7.0 | 0.11 | 0.39 | 0.12 | 90 | 1008.8 |
| 20260903123505 | 55 | 172 | 5.0 | 8.0 | 0.09 | 0.37 | 0.10 | 90 | 1008.9 |
| 20260903123005 | 55 | 179 | 5.0 | 8.0 | 0.07 | 0.34 | 0.07 | 90 | 1009.0 |
| 20260903122505 | 56 | 160 | 6.0 | 10.0 | 0.06 | 0.33 | 0.06 | 90 | 1009.0 |
| 20260903122005 | 56 | 187 | 5.0 | 9.0 | 0.06 | 0.33 | 0.06 | 89 | 1009.0 |
| 20260903121505 | 56 | 176 | 3.0 | 8.0 | 0.05 | 0.32 | 0.05 | 89 | 1009.0 |
| 20260903121005 | 56 | 180 | 5.0 | 7.0 | 0.05 | 0.32 | 0.05 | 89 | 1008.9 |
| 20260903120504 | 56 | 162 | 3.0 | 6.0 | 0.04 | 0.31 | 0.04 | 89 | 1008.9 |
| 20260903120005 | 56 | 171 | 3.0 | 8.0 | 0.03 | 0.30 | 0.03 | 89 | 1008.9 |
| 20260903115504 | 56 | 166 | 4.0 | 8.0 | 0.03 | 0.30 | 0.03 | 89 | 1008.9 |
| 20260903114505 | 56 | 154 | 2.0 | 7.0 | 0.02 | 0.29 | 0.02 | 89 | 1008.9 |
| 20260903113504 | 56 | 174 | 5.0 | 10.0 | 0.01 | 0.28 | 0.01 | 88 | 1009.0 |
| 20260903112505 | 56 | 153 | 4.0 | 8.0 | 0.00 | 0.27 | 0.00 | 88 | 1008.9 |
| 20260903111505 | 56 | 167 | 5.0 | 10.0 | 0.00 | 0.27 | 0.00 | 88 | 1009.0 |
| 20260903111004 | 56 | 154 | 6.0 | 9.0 | 0.00 | 0.27 | 0.00 | 88 | 1008.9 |
| 20260903110504 | 56 | 170 | 5.0 | 12.0 | 0.00 | 0.27 | 0.00 | 88 | 1008.9 |
| 20260903110005 | 56 | 146 | 4.0 | 8.0 | 0.00 | 0.27 | 0.00 | 88 | 1008.8 |
| 20260903105505 | 56 | 155 | 5.0 | 9.0 | 0.00 | 0.27 | 0.00 | 88 | 1008.9 |
| 20260903104505 | 57 | 139 | 4.0 | 7.0 | 0.00 | 0.27 | 0.00 | 87 | 1008.8 |
| 20260903104005 | 57 | 149 | 4.0 | 9.0 | 0.00 | 0.27 | 0.00 | 87 | 1008.8 |
| 20260903103505 | 57 | 183 | 5.0 | 8.0 | 0.00 | 0.27 | 0.00 | 87 | 1008.8 |
| 20260903103004 | 57 | 176 | 3.0 | 10.0 | 0.00 | 0.27 | 0.00 | 87 | 1008.8 |
| 20260903102504 | 57 | 165 | 5.0 | 8.0 | 0.00 | 0.27 | 0.00 | 87 | 1008.9 |
| 20260903102005 | 56 | 192 | 7.0 | 13.0 | 0.00 | 0.27 | 0.00 | 87 | 1008.9 |
| 20260903101505 | 56 | 180 | 8.0 | 13.0 | 0.00 | 0.27 | 0.00 | 88 | 1008.9 |
| 20260903101005 | 56 | 160 | 3.0 | 7.0 | 0.00 | 0.27 | 0.00 | 88 | 1008.9 |
| 20260903100504 | 56 | 199 | 4.0 | 8.0 | 0.00 | 0.27 | 0.00 | 88 | 1008.9 |
| 20260903100004 | 56 | 163 | 3.0 | 9.0 | 0.00 | 0.27 | 0.00 | 88 | 1008.8 |
| 20260903095505 | 56 | 170 | 5.0 | 10.0 | 0.00 | 0.27 | 0.00 | 88 | 1008.8 |
| 20260903094505 | 56 | 165 | 6.0 | 10.0 | 0.00 | 0.27 | 0.00 | 88 | 1008.8 |
| 20260903094005 | 56 | 151 | 6.0 | 9.0 | 0.00 | 0.27 | 0.00 | 88 | 1008.8 |
| 20260903093504 | 57 | 185 | 6.0 | 9.0 | 0.00 | 0.27 | 0.00 | 88 | 1008.8 |
| 20260903093005 | 57 | 150 | 6.0 | 12.0 | 0.00 | 0.27 | 0.00 | 88 | 1008.8 |
| 20260903092505 | 57 | 168 | 5.0 | 10.0 | 0.00 | 0.27 | 0.00 | 88 | 1008.9 |
| 20260903092004 | 57 | 156 | 3.0 | 7.0 | 0.00 | 0.27 | 0.00 | 88 | 1009.0 |
| 20260903091005 | 57 | 167 | 3.0 | 8.0 | 0.00 | 0.27 | 0.00 | 88 | 1008.9 |
| 20260903090504 | 57 | 162 | 5.0 | 9.0 | 0.00 | 0.27 | 0.00 | 88 | 1009.0 |
| 20260903085504 | 57 | 156 | 6.0 | 10.0 | 0.00 | 0.27 | 0.00 | 88 | 1009.0 |
| 20260903085005 | 57 | 175 | 6.0 | 9.0 | 0.00 | 0.27 | 0.00 | 88 | 1009.1 |
| 20260903084505 | 57 | 170 | 5.0 | 12.0 | 0.00 | 0.27 | 0.00 | 88 | 1009.1 |
| 20260903084005 | 57 | 161 | 7.0 | 14.0 | 0.00 | 0.27 | 0.00 | 88 | 1009.1 |
| 20260903083505 | 57 | 184 | 5.0 | 12.0 | 0.00 | 0.27 | 0.00 | 88 | 1009.0 |
| 20260903082505 | 57 | 167 | 3.0 | 10.0 | 0.00 | 0.27 | 0.00 | 88 | 1009.1 |
| 20260903082004 | 57 | 184 | 3.0 | 12.0 | 0.00 | 0.27 | 0.00 | 88 | 1009.1 |
| 20260903081005 | 57 | 159 | 6.0 | 10.0 | 0.00 | 0.27 | 0.00 | 88 | 1009.1 |
| 20260903080504 | 57 | 177 | 6.0 | 10.0 | 0.00 | 0.27 | 0.00 | 88 | 1009.2 |
| 20260903075504 | 57 | 178 | 4.0 | 9.0 | 0.00 | 0.27 | 0.00 | 88 | 1009.2 |
| 20260903075005 | 57 | 177 | 3.0 | 10.0 | 0.00 | 0.27 | 0.00 | 88 | 1009.3 |
| 20260903074504 | 57 | 193 | 3.0 | 7.0 | 0.00 | 0.27 | 0.00 | 88 | 1009.3 |
| 20260903074004 | 57 | 165 | 5.0 | 9.0 | 0.00 | 0.27 | 0.00 | 88 | 1009.3 |
| 20260903073505 | 57 | 177 | 6.0 | 10.0 | 0.00 | 0.27 | 0.00 | 88 | 1009.3 |
| 20260903072005 | 57 | 173 | 6.0 | 10.0 | 0.00 | 0.27 | 0.00 | 88 | 1009.3 |
| 20260903071504 | 57 | 176 | 7.0 | 12.0 | 0.00 | 0.27 | 0.00 | 88 | 1009.2 |
| 20260903071005 | 57 | 168 | 3.0 | 8.0 | 0.00 | 0.27 | 0.00 | 88 | 1009.1 |
| 20260903070505 | 57 | 178 | 3.0 | 7.0 | 0.00 | 0.27 | 0.00 | 88 | 1009.1 |
| 20260903070005 | 57 | 164 | 2.0 | 5.0 | 0.00 | 0.27 | 0.00 | 88 | 1009.1 |
| 20260903065504 | 57 | 167 | 3.0 | 7.0 | 0.00 | 0.27 | 0.27 | 88 | 1009.2 |
| 20260903065005 | 57 | 191 | 3.0 | 8.0 | 0.00 | 0.27 | 0.27 | 88 | 1009.1 |
| 20260903064505 | 57 | 162 | 2.0 | 7.0 | 0.00 | 0.27 | 0.27 | 87 | 1009.0 |
| 20260903064004 | 57 | 201 | 2.0 | 7.0 | 0.00 | 0.27 | 0.27 | 87 | 1009.1 |
| 20260903062505 | 57 | 195 | 3.0 | 6.0 | 0.00 | 0.27 | 0.27 | 87 | 1009.1 |
| 20260903062005 | 57 | 177 | 4.0 | 6.0 | 0.00 | 0.27 | 0.27 | 87 | 1009.0 |
| 20260903061505 | 57 | 164 | 3.0 | 6.0 | 0.00 | 0.27 | 0.27 | 87 | 1009.0 |
| 20260903061004 | 57 | 183 | 3.0 | 5.0 | 0.00 | 0.27 | 0.27 | 87 | 1009.1 |
| 20260903060505 | 57 | 195 | 2.0 | 9.0 | 0.00 | 0.27 | 0.27 | 86 | 1009.2 |
| 20260903060004 | 57 | 200 | 3.0 | 7.0 | 0.00 | 0.27 | 0.27 | 86 | 1009.2 |
| 20260903055505 | 57 | 175 | 2.0 | 6.0 | 0.00 | 0.27 | 0.27 | 86 | 1009.3 |
| 20260903055005 | 57 | 198 | 3.0 | 8.0 | 0.00 | 0.27 | 0.27 | 86 | 1009.3 |
| 20260903054505 | 57 | 198 | 6.0 | 8.0 | 0.00 | 0.27 | 0.27 | 86 | 1009.3 |
| 20260903054005 | 57 | 189 | 3.0 | 7.0 | 0.00 | 0.27 | 0.27 | 86 | 1009.3 |
| 20260903053504 | 57 | 173 | 3.0 | 10.0 | 0.00 | 0.27 | 0.27 | 86 | 1009.2 |
| 20260903051005 | 57 | 184 | 3.0 | 6.0 | 0.00 | 0.27 | 0.27 | 85 | 1009.2 |
| 20260903050505 | 57 | 189 | 3.0 | 6.0 | 0.00 | 0.27 | 0.27 | 85 | 1009.1 |
| 20260903050005 | 56 | 202 | 2.0 | 9.0 | 0.00 | 0.27 | 0.27 | 85 | 1009.0 |
| 20260903045505 | 56 | 187 | 4.0 | 7.0 | 0.00 | 0.27 | 0.27 | 86 | 1009.0 |
| 20260903045004 | 56 | 183 | 2.0 | 5.0 | 0.00 | 0.27 | 0.27 | 85 | 1009.0 |
| 20260903044505 | 56 | 203 | 5.0 | 7.0 | 0.00 | 0.27 | 0.27 | 86 | 1008.8 |
| 20260903044004 | 56 | 179 | 5.0 | 7.0 | 0.00 | 0.27 | 0.27 | 86 | 1008.8 |
| 20260903043505 | 56 | 194 | 3.0 | 6.0 | 0.00 | 0.27 | 0.27 | 86 | 1008.7 |
| 20260903043005 | 56 | 203 | 3.0 | 5.0 | 0.00 | 0.27 | 0.27 | 86 | 1008.6 |
| 20260903042504 | 56 | 202 | 3.0 | 5.0 | 0.00 | 0.27 | 0.27 | 86 | 1008.5 |
| 20260903042005 | 56 | 193 | 2.0 | 6.0 | 0.00 | 0.27 | 0.27 | 86 | 1008.6 |
| 20260903041505 | 56 | 203 | 3.0 | 6.0 | 0.00 | 0.27 | 0.27 | 85 | 1008.5 |
| 20260903041005 | 56 | 197 | 2.0 | 3.0 | 0.00 | 0.27 | 0.27 | 85 | 1008.6 |
| 20260903040504 | 56 | 203 | 2.0 | 5.0 | 0.00 | 0.27 | 0.27 | 84 | 1008.5 |
| 20260903040004 | 56 | 225 | 3.0 | 3.0 | 0.00 | 0.27 | 0.27 | 84 | 1008.5 |
| 20260903035505 | 56 | 215 | 2.0 | 5.0 | 0.00 | 0.27 | 0.27 | 84 | 1008.3 |
| 20260903035005 | 56 | 204 | 3.0 | 6.0 | 0.00 | 0.27 | 0.27 | 85 | 1008.3 |
| 20260903034505 | 56 | 209 | 2.0 | 6.0 | 0.00 | 0.27 | 0.27 | 85 | 1008.3 |
| 20260903033505 | 57 | 191 | 2.0 | 5.0 | 0.00 | 0.27 | 0.27 | 85 | 1008.0 |
| 20260903032005 | 57 | 194 | 2.0 | 3.0 | 0.00 | 0.27 | 0.27 | 84 | 1007.9 |
| 20260903031504 | 58 | 218 | 3.0 | 3.0 | 0.00 | 0.27 | 0.27 | 84 | 1008.0 |
| 20260903031004 | 58 | 215 | 2.0 | 5.0 | 0.00 | 0.27 | 0.27 | 83 | 1007.9 |
| 20260903030504 | 58 | 214 | 2.0 | 3.0 | 0.00 | 0.27 | 0.27 | 83 | 1007.8 |
| 20260903030005 | 59 | 213 | 2.0 | 3.0 | 0.00 | 0.27 | 0.27 | 82 | 1007.8 |
| 20260903025005 | 60 | 243 | 1.0 | 3.0 | 0.00 | 0.27 | 0.27 | 80 | 1007.6 |
| 20260903024504 | 60 | 212 | 3.0 | 6.0 | 0.00 | 0.27 | 0.27 | 80 | 1007.6 |
| 20260903024005 | 60 | 210 | 2.0 | 3.0 | 0.00 | 0.27 | 0.27 | 80 | 1007.6 |
| 20260903023504 | 61 | 218 | 2.0 | 3.0 | 0.00 | 0.27 | 0.27 | 80 | 1007.6 |
| 20260903023005 | 61 | 206 | 2.0 | 3.0 | 0.00 | 0.27 | 0.27 | 79 | 1007.5 |
| 20260903022505 | 62 | 225 | 2.0 | 3.0 | 0.00 | 0.27 | 0.27 | 78 | 1007.5 |
| 20260903022004 | 63 | 170 | 2.0 | 3.0 | 0.00 | 0.27 | 0.27 | 78 | 1007.4 |
| 20260903021505 | 64 | 196 | 1.0 | 3.0 | 0.00 | 0.27 | 0.27 | 76 | 1007.4 |
| 20260903021004 | 64 | 201 | 2.0 | 3.0 | 0.01 | 0.27 | 0.27 | 74 | 1007.4 |
| 20260903020504 | 65 | 206 | 3.0 | 3.0 | 0.01 | 0.27 | 0.27 | 72 | 1007.3 |
| 20260903020004 | 65 | 235 | 2.0 | 5.0 | 0.01 | 0.27 | 0.27 | 72 | 1007.2 |
| 20260903015504 | 65 | 221 | 2.0 | 2.0 | 0.01 | 0.27 | 0.27 | 70 | 1007.3 |
| 20260903015004 | 65 | 272 | 1.0 | 3.0 | 0.01 | 0.27 | 0.27 | 73 | 1007.2 |
| 20260903014505 | 66 | 254 | 3.0 | 6.0 | 0.01 | 0.27 | 0.27 | 70 | 1007.3 |
| 20260903013505 | 65 | 234 | 0.0 | 2.0 | 0.01 | 0.27 | 0.27 | 71 | 1007.2 |
| 20260903013005 | 65 | 234 | 0.0 | 2.0 | 0.01 | 0.27 | 0.27 | 73 | 1007.1 |
| 20260903012505 | 64 | 211 | 0.0 | 2.0 | 0.01 | 0.27 | 0.27 | 76 | 1007.1 |
| 20260903012005 | 64 | 205 | 1.0 | 2.0 | 0.01 | 0.27 | 0.27 | 73 | 1007.0 |
| 20260903011005 | 65 | 235 | 1.0 | 2.0 | 0.00 | 0.26 | 0.26 | 73 | 1006.9 |
| 20260903010504 | 65 | 206 | 1.0 | 5.0 | 0.00 | 0.26 | 0.26 | 69 | 1006.9 |
| 20260903010005 | 66 | 200 | 3.0 | 6.0 | 0.00 | 0.26 | 0.26 | 68 | 1006.9 |
| 20260903005505 | 66 | 221 | 3.0 | 6.0 | 0.00 | 0.26 | 0.26 | 70 | 1006.8 |
| 20260903005005 | 67 | 258 | 4.0 | 8.0 | 0.00 | 0.26 | 0.26 | 67 | 1006.8 |
| 20260903004504 | 66 | 214 | 2.0 | 7.0 | 0.00 | 0.26 | 0.26 | 67 | 1006.7 |
| 20260903004004 | 66 | 198 | 5.0 | 9.0 | 0.00 | 0.26 | 0.26 | 69 | 1006.6 |
| 20260903003505 | 66 | 175 | 5.0 | 7.0 | 0.00 | 0.26 | 0.26 | 73 | 1006.7 |
| 20260903003004 | 65 | 193 | 5.0 | 7.0 | 0.00 | 0.26 | 0.26 | 72 | 1006.8 |
| 20260903002504 | 66 | 182 | 4.0 | 7.0 | 0.00 | 0.26 | 0.26 | 71 | 1006.7 |
| 20260903002004 | 66 | 176 | 2.0 | 8.0 | 0.00 | 0.26 | 0.26 | 68 | 1006.7 |
| 20260903001505 | 67 | 204 | 6.0 | 10.0 | 0.00 | 0.26 | 0.26 | 72 | 1006.6 |
| 20260903000505 | 66 | 204 | 4.0 | 7.0 | 0.00 | 0.26 | 0.26 | 73 | 1006.7 |
| 20260902235505 | 66 | 258 | 4.0 | 9.0 | 0.00 | 0.26 | 0.26 | 71 | 1006.6 |
| 20260902235005 | 65 | 226 | 3.0 | 6.0 | 0.00 | 0.26 | 0.26 | 71 | 1006.6 |
| 20260902234504 | 66 | 148 | 3.0 | 6.0 | 0.00 | 0.26 | 0.26 | 73 | 1006.5 |
| 20260902234005 | 66 | 199 | 4.0 | 7.0 | 0.00 | 0.26 | 0.26 | 71 | 1006.5 |
| 20260902233504 | 66 | 201 | 5.0 | 8.0 | 0.00 | 0.26 | 0.26 | 76 | 1006.4 |
| 20260902232504 | 65 | 186 | 3.0 | 8.0 | 0.00 | 0.26 | 0.26 | 77 | 1006.5 |
| 20260902232005 | 65 | 202 | 2.0 | 3.0 | 0.00 | 0.26 | 0.26 | 78 | 1006.5 |
| 20260902231504 | 64 | 182 | 3.0 | 5.0 | 0.00 | 0.26 | 0.26 | 81 | 1006.4 |
| 20260902231005 | 64 | 175 | 3.0 | 6.0 | 0.01 | 0.26 | 0.26 | 81 | 1006.4 |
| 20260902230004 | 64 | 225 | 4.0 | 8.0 | 0.01 | 0.26 | 0.26 | 85 | 1006.4 |
| 20260902225504 | 63 | 169 | 5.0 | 9.0 | 0.01 | 0.26 | 0.26 | 87 | 1006.4 |
| 20260902224505 | 61 | 200 | 5.0 | 9.0 | 0.01 | 0.26 | 0.26 | 88 | 1006.1 |
| 20260902224004 | 61 | 196 | 4.0 | 8.0 | 0.01 | 0.26 | 0.26 | 89 | 1006.1 |
| 20260902223505 | 61 | 205 | 6.0 | 8.0 | 0.01 | 0.26 | 0.26 | 89 | 1006.0 |
| 20260902223004 | 61 | 180 | 6.0 | 13.0 | 0.02 | 0.26 | 0.26 | 89 | 1006.0 |
| 20260902222505 | 60 | 183 | 5.0 | 10.0 | 0.02 | 0.26 | 0.26 | 90 | 1006.0 |
| 20260902222004 | 60 | 192 | 6.0 | 12.0 | 0.02 | 0.26 | 0.26 | 89 | 1006.0 |
| 20260902221506 | 60 | 190 | 8.0 | 14.0 | 0.02 | 0.26 | 0.26 | 89 | 1005.9 |
| 20260902220505 | 60 | 176 | 10.0 | 15.0 | 0.01 | 0.25 | 0.25 | 90 | 1005.7 |
| 20260902215504 | 60 | 176 | 8.0 | 16.0 | 0.02 | 0.25 | 0.25 | 90 | 1005.6 |
| 20260902215005 | 60 | 146 | 9.0 | 16.0 | 0.02 | 0.25 | 0.25 | 90 | 1005.5 |
| 20260902214504 | 59 | 178 | 7.0 | 13.0 | 0.02 | 0.25 | 0.25 | 90 | 1005.6 |